Tracking 31027 objects as of 19-Jul-2025
HD Live streaming from Space Station
objects crossing your sky now

DELTA 1 DEB

Track DELTA 1 DEB now!
10-day predictions


NORAD ID: 7141
Int'l Code: 1973-086DF
Perigee: 1,491.4 km
Apogee: 1,529.1 km
Inclination: 102.1 °
Period: 116.1 minutes
Semi major axis: 7881 km
RCS: 0.0598 m2 (small)
Launch date: November 6, 1973
Source: United States (US)
Launch site: AIR FORCE WESTERN TEST RANGE (AFWTR)

Note: This is SATELLITE DEBRIS
Your satellite tracking list
STARLINK-3674
Track 1 satellite(s)




NASA's NSSDC Master Catalog

Two Line Element Set (TLE):
1 07141U 73086DF  25199.63524243 -.00000112  00000-0 -49246-3 0  9996
2 07141 102.0961 248.1838 0023887 197.8127 314.4757 12.40828799333674
Source of the keplerian elements: AFSPC